Regional Weather Roundup
Issued by NWS

Home | Current Version | Previous Version | Text Only | Print | Product List | Glossary On
Versions: 1 2 3 4 5 6 7 8 9 10 11 12 13 14 15 16 17 18 19 20 21 22 23 24 25 26 27 28 29 30 31 32 33 34 35 36 37 38 39 40 41 42 43 44 45 46 47 48 49 50
000
ASUS46 KPQR 260410
RWROR

OREGON REGIONAL WEATHER ROUNDUP
NATIONAL WEATHER SERVICE PORTLAND OR
900 PM PDT MON MAY 25 2015

NOTE: "FAIR" INDICATES FEW OR NO CLOUDS BELOW 12,000 FEET WITH
NO SIGNIFICANT WEATHER AND/OR OBSTRUCTIONS TO VISIBILITY.

ORZ001>013-260500-
NORTHWEST OREGON


CITY           SKY/WX    TMP DP  RH WIND       PRES   REMARKS
ASTORIA        CLOUDY    54  49  83 W6        30.05S
NEWPORT        CLOUDY    54  50  87 N7        30.08S
PORTLAND       MOCLDY    60  50  69 N7        30.01R
VANCOUVER WA   CLOUDY    60  49  66 NW8       30.01R
SCAPPOOSE      CLEAR     56  49  77 N5        30.01R
HILLSBORO      MOCLDY    58  50  75 NE8       30.01R
AURORA         PTCLDY    61  51  70 N9        30.00R
MCMINNVILLE    CLOUDY    60  52  74 SW7       30.00R
SALEM          CLEAR     61  50  67 NW8       29.98R
CORVALLIS      CLEAR     57  48  72 NW13      30.00R
EUGENE         PTCLDY    59  53  80 N6        29.98R
$$

ORZ021-028-260500-
SOUTHWEST OREGON


CITY           SKY/WX    TMP DP  RH WIND       PRES   REMARKS
NORTH BEND     MOCLDY    54  52  94 N16       30.05R
BROOKINGS      CLOUDY    52  52 100 VRB6      29.95R
ROSEBURG       CLEAR     70  51  51 N9        29.96R
SEXTON SUMMIT  CLEAR     52  40  63 N12G21    30.00R
MEDFORD        CLEAR     70  39  32 N9        29.93R
$$

ORZ014>016-041-260500-
COLUMBIA GORGE


CITY           SKY/WX    TMP DP  RH WIND       PRES   REMARKS
TROUTDALE      CLOUDY    62  50  64 N5        30.00R
THE DALLES     CLEAR     63  48  58 NW23G31   29.88S
$$

ORZ029>031-041-044-049-050-061>064-502-503-505>511-260500-
EASTERN OREGON


CITY           SKY/WX    TMP DP  RH WIND       PRES   REMARKS
REDMOND        CLEAR     60  40  47 NW10      29.95R
BEND           CLEAR     59  39  47 NW9       29.96R
PRINEVILLE     CLEAR     57  37  47 N9        29.96R
KLAMATH FALLS  CLEAR     58  38  47 W3        29.97R
LAKEVIEW       CLOUDY    57  46  67 SE14G22   29.98R
HERMISTON      LGT RAIN  67  50  54 SW6       29.83S
PENDLETON      CLOUDY    65  47  52 NE5       29.85R
JOHN DAY       PTCLDY    61  37  41 CALM      29.94R
MEACHAM        CLEAR     50  41  71 CALM      29.94R
LA GRANDE      CLEAR     61  37  41 W5        29.90R
BAKER CITY     CLEAR     54  42  64 NW5       29.92R
BURNS          CLEAR     58  34  40 NW9       29.93R
ROME             N/A     58  46  64 SE3       29.92R
ONTARIO        CLEAR     58  53  84 NW3       29.87R
$$



USA.gov is the U.S. government's official web portal to all federal, state and local government web resources and services.